Tracking 18980 objects as of 20-Feb-2018
HD Live streaming from Space Station
objects crossing your sky now

CZ-4B DEB

Track CZ-4B DEB now!
10-day predictions


NORAD ID: 28438
Int'l Code: 2002-024E
Perigee: 781.1 km
Apogee: 813.5 km
Inclination: 98.5 °
Period: 100.7 minutes
Semi major axis: 7168 km
RCS: 0.0024 m2 (small)
Launch date: May 15, 2002
Source: People's Republic of China (PRC)
Launch site: Taiyaun Space Center, China (TSC)

Note: This is SATELLITE DEBRIS
aabbcc
Your satellite tracking list
Your tracking list is empty




NASA's NSSDC Master Catalog

Two Line Element Set (TLE):
1 28438U 02024E   18050.40935665 +.00000472 +00000-0 +19722-3 0  9992
2 28438 098.4688 043.6132 0022605 136.2881 224.0097 14.30460580818162
Source of the keplerian elements: AFSPC